www.pogodaiklimat.ru

Погода и климат >> Архив погоды >> Иордания >> Аэропорт Королева Алия


ПОГОДА в Аэропорту Королева Алия

  • Прогноз погоды в Аэропорту Королева Алия
  • Монитор погоды в Аэропорту Королева Алия

АРХИВ ПОГОДЫ в Аэропорту Королева Алия

Время (UTC), дата Ветер
(напр.,м/с)
 
Видим.   Явления Облачность Т
(С)
Тd
(С)
f
(%)
Тe
(С)
Тes
(С)
Комфортность P
(гПа)
Po
(гПа)
Тmin
(С)
Tmax
(С)
R
(мм)
R24
(мм)
S
(см)
15 13.08 СЗ 7 6000 м мгла ясно +32.4 +6.9 20 +31 +31 жарко 1004.5 926.2
18 13.08 СЗ 3 6000 м мгла ясно +26.4 +7.1 29 +26 +26 жарко 1006.0 926.8 +35.0
21 13.08 СЗ 3 6000 м мгла 4/0
[Ac trans]
+23.2 +5.1 31 +23 +23 комфорт 1007.1 927.4
00 14.08 В 3 6000 м мгла 4/0
[Ac trans]
+19.2 +3.8 36 +20 +20 1007.2 927.0
03 14.08 СЗ 3 6000 м мгла 4/0
[Ac trans]
+18.4 +3.7 38 +19 +19 1007.7 927.4
06 14.08 З 6 5000 м мгла ясно +26.8 +8.8 32 +27 +31 жарко 1007.6 928.4 +18.0
09 14.08 З 6 6000 м мгла ясно +31.2 +9.2 26 +31 +38 жарко 1007.0 928.4
12 14.08 З 9 6000 м мгла ясно +33.0 +6.8 20 +31 +33 жарко 1006.3 927.6
15 14.08 З 7 6000 м мгла ясно +32.0 +11.0 28 +32 +32 жарко 1006.7 927.8
18 14.08 З 5 10 км мгла ясно +25.6 +7.9 32 +26 +26 жарко 1007.6 928.8 +34.2
21 14.08 З 2 10 км мгла ясно +20.2 +7.9 45 +22 +22 комфорт 1007.9 929.0
00 15.08 СЗ 3 10 км мгла ясно +17.8 +7.5 51 +18 +18 1007.8 928.8
06 15.08 ЮЗ 3 6000 м мгла ясно +23.0 +14.9 60 +27 +34 душно 1009.0 929.6 +12.0
09 15.08 СЗ 6 6000 м мгла ясно +30.8 +8.0 24 +30 +37 жарко 1008.0 929.0
12 15.08 З 9 5000 м пыльный позёмок ясно +32.4 +12.1 29 +33 +34 жарко 1007.9 928.8
15 15.08 З 8 5000 м пыльный позёмок ясно +31.3 +13.0 33 +32 +33 жарко 1008.4 928.8
18 15.08 СЗ 4 7000 м мгла ясно +25.5 +10.9 40 +27 +27 жарко 1009.7 930.3 +34.8
21 15.08 штиль 0 7000 м мгла ясно +21.0 +8.5 45 +22 +22 комфорт 1009.0 930.0
00 16.08 штиль 0 7000 м мгла ясно +19.4 +7.3 45 +20 +20 1008.4 929.5
03 16.08 штиль 0 6000 м мгла ясно +18.8 +6.7 45 +19 +19 1008.7 929.5
06 16.08 Ю 3 5000 м мгла ясно +26.2 +6.4 28 +26 +33 жарко 1008.8 929.8 +16.6
09 16.08 ЮЗ 5 7000 м мгла ясно +34.2 +4.7 16 +32 +42 жарко 1007.5 929.1
12 16.08 З 9 6000 м мгла ясно +36.2 +12.7 24 +36 +37 очень
жарко
1006.4 928.1
15 16.08 З 8 6000 м мгла ясно +34.0 +11.3 25 +34 +34 очень
жарко
1006.7 928.0
18 16.08 З 3 6000 м мгла ясно +28.0 +10.6 34 +29 +29 жарко 1006.8 928.3 +37.0
21 16.08 З 3 6000 м мгла ясно +23.4 +11.6 47 +26 +26 жарко 1006.9 928.8
00 17.08 З 2 8000 м мгла ясно +18.4 +9.0 54 +19 +19 1006.5 928.1
03 17.08 З 2 6000 м мгла ясно +17.2 +8.1 55 +18 +18 1007.4 928.5
06 17.08 З 4 6000 м мгла ясно +26.8 +14.6 47 +29 +35 жарко 1007.5 929.0 +17.0
09 17.08 З 6 6000 м мгла ясно +30.7 +15.5 40 +33 +41 душно 1007.4 928.8
12 17.08 З 6 6000 м мгла ясно +32.5 +15.2 35 +35 +40 душно 1006.5 928.2
15 17.08 СЗ 9 7000 м мгла ясно +30.2 +15.9 42 +33 +33 душно 1006.3 927.0
18 17.08 СЗ 3 7000 м мгла ясно +25.0 +15.4 55 +28 +28 жарко 1006.6 927.8 +34.5
21 17.08 СЗ 3 7000 м мгла ясно +20.2 +15.0 72 +23 +23 комфорт 1006.6 927.6
00 18.08 З 3 7000 м мгла ясно +18.7 +15.9 84 +20 +20 1005.9 926.8
03 18.08 З 3 3000 м дымка ясно +18.0 +16.4 90 +18 +18 1006.6 927.4
06 18.08 З 4 5000 м мгла 6/6 900 м
[Cu hum]
+23.4 +17.5 69 +29 +31 душно 1006.8 927.6 +16.7
09 18.08 З 4 6000 м мгла 3/3 900 м
[Cu hum]
+27.6 +14.0 43 +30 +39 жарко 1007.1 927.8
12 18.08 З 7 7000 м мгла 3/0
[Ci sp]
+30.2 +12.5 34 +31 +35 жарко 1006.1 927.0
15 18.08 З 7 7000 м мгла 4/1 1050 м
[Cu hum As op]
+29.4 +15.6 43 +32 +32 душно 1006.5 927.2
18 18.08 З 5 10 км мгла ясно +24.2 +14.8 56 +27 +27 жарко 1007.4 928.0 +32.2
21 18.08 З 4 10 км мгла ясно +20.2 +14.2 68 +23 +23 комфорт 1007.6 928.2
00 19.08 СЗ 2 10 км мгла ясно +17.2 +13.1 77 +18 +18 1007.4 928.0
03 19.08 В 1 4000 м мгла ясно +14.4 +10.8 79 +15 +15 1008.8 928.8
06 19.08 З 2 5000 м мгла ясно +22.0 +15.5 67 +26 +34 душно 1009.4 929.7 +12.0
09 19.08 З 5 5000 м мгла ясно +28.2 +9.4 31 +28 +39 жарко 1008.5 929.1
12 19.08 З 5 7000 м мгла ясно +32.0 +8.5 23 +31 +38 жарко 1007.6 928.4
15 19.08 З 5 8000 м мгла ясно +30.4 +12.4 33 +31 +32 жарко 1008.2 928.4
18 19.08 СЗ 4 8000 м мгла ясно +24.8 +17.7 65 +29 +29 душно 1009.0 929.4 +32.4
21 19.08 З 2 8000 м мгла ясно +22.0 +15.9 68 +26 +26 душно 1009.2 930.0
00 20.08 СЗ 3 8000 м мгла ясно +19.0 +14.3 74 +20 +20 1008.6 929.6
03 20.08 СЗ 2 6000 м мгла ясно +17.2 +12.5 74 +18 +18 1009.5 930.0
06 20.08 З 4 6000 м мгла ясно +23.2 +13.6 55 +27 +32 душно 1010.4 930.8 +14.8
09 20.08 СЗ 4 7000 м мгла ясно +28.0 +9.4 31 +28 +41 жарко 1010.0 930.7

 

Местоположение метеостанции Аэропорт Королева Алия (Иордания): широта 31.72 долгота 35.98 высота над уровнем моря 722 м.

В архиве по умолчанию представлена погода в Аэропорту Королева Алия за последнюю неделю. Архивные данные за месяц целиком и за предыдущие месяцы, начиная с января 2011 года, Вы можете получить, выбрав интересующий диапазон дат из раскрывающегося списка и нажав кнопку "Ввод!".


*Определитесь, кто Вы:
робот инопланетянин человек

Внимание! Время в таблицах - всемирное. Для получения местного времени необходимо прибавить поправку, которая равна 2 ч.

Смотрите также архив погоды в соседних городах и на ближайших метеорологических станциях:

Погода в Аммане (Иордания) (29 км)
Погода в Иерусалиме (Израиль) (72 км)
Погода в Эль-Мафраке (Иордания) (77 км)
Погода в Гавр-эс-Сафи (Иордания) (91 км)
Погода в Ирбиде (Иордания) (93 км)
Погода в Седоме (Израиль) (95 км)
Погода в Даръа (Сирия) (99 км)
Погода в Израильском мет сервисе (Израиль) (114 км)
Погода в Тель-Авиве (Израиль) (121 км)
Погода в Аэропорту Принц Хассан (Иордания) (121 км)

Пояснения к столбцам:

Ветер - указаны скорость ветра в м/с - средняя за 10 мин, порывы в срок и между сроками (в фигурных скобках) и направление, откуда дует ветер: С - северный, СВ - северо-восточный, В - восточный, ЮВ - юго-восточный, Ю - южный, ЮЗ - юго-западный, З - западный, СЗ - северо-западный.
Видимость - горизонтальная дальность видимости в метрах или километрах. При видимости от 1 до 10 км при отсутствии осадков обычно наблюдается дымка, при ухудшении видимости до 1 км и менее - туман. В сухую погоду видимость может ухудшаться дымом, пылью или мглою.
Явления - указаны атмосферные явления, наблюдавшиеся в срок или в последний час перед сроком; фигурными скобками обозначены явления, наблюдавшиеся между сроками (за 1-3 часа до срока); квадратными скобками обозначены град или гололедные отложения с указанием их диаметра в мм.
Облачность - указаны через наклонную черту общая и нижняя облачность в баллах и высота нижней границы облаков в метрах; квадратными скобками обозначены формы облаков: Ci - перистые, Cs - перисто-слоистые, Cc - перисто-кучевые, Ac - высококучевые, As - высокослоистые, Sc - слоисто-кучевые, Ns - слоисто-дождевые, Cu - кучевые, Cb - кучево-дождевые. Подробнее классификацию облаков см. в Атласе облаков (PDF).
T - Температура воздуха - температура, измеренная на высоте 2 м над землей.
Td - Температура точки росы - температура, при понижении до которой содержащийся в воздухе водяной пар достигнет насыщения.
f - Относительная влажность воздуха - влажноcть воздуха, измеренная на высоте 2 м над землей.
Te - Эффективная температура - температура, которую ощущает одетый по сезону человек в тени. Характеристика душности погоды. При расчете учитывается влияние влажности воздуха и скорости ветра на теплоощущения человека.
Tes - Эффективная температура на солнце - температура, которую ощущает человек, с поправкой на солнечный нагрев. Характеристика знойности погоды. Зависит от высоты солнца над горизонтом, облачности и скорости ветра. Ночью, в пасмурную погоду, а также при ветре 12 м/с и более поправка равна нулю.
P - Атмосферное давление - приведенное к уровню моря атмосферное давление.
Po - Атмосферное давление - измеренное на уровне метеостанции атмосферное давление.
Tmin - Минимальная температура - минимум температуры воздуха на высоте 2 м над землей.
Tmax - Максимальная температура - максимум температуры воздуха на высоте 2 м над землей.
R - Количество осадков - Количество выпавших осадков за период времени, мм. При наведении курсора мыши на число - период времени, за который выпало указанное количество осадков.
R24 - Количество осадков - Количество выпавших осадков за 24 часа, мм.
S - Снежный покров - Высота снежного покрова, см. При наведении курсора мыши на число - состояние снежного покрова и степень покрытия местности в баллах.